Tiempo cada hora Ceiba

Hoy, 23 Abril, Viernes

Tiempo Temperatura Precipitaciones Viento Presión Humedad
00:00 +21°C° 0 mm 2 mps 722 mmHg 89%
01:00 +21°C° 0 mm 2 mps 722 mmHg 89%
02:00 +21°C° 0 mm 2 mps 722 mmHg 87%
03:00 +21°C° 0 mm 2 mps 722 mmHg 87%
04:00 +21°C° 0 mm 2 mps 722 mmHg 87%
05:00 +20°C° 0 mm 2 mps 721 mmHg 87%
06:00 +23°C° 0 mm 2 mps 722 mmHg 81%
07:00 +24°C° 0 mm 2 mps 723 mmHg 75%
08:00 +25°C° 0 mm 2 mps 723 mmHg 68%
09:00 +27°C° 0 mm 3 mps 723 mmHg 62%
10:00 +28°C° 0 mm 3 mps 723 mmHg 55%
11:00 +30°C° 0 mm 4 mps 723 mmHg 48%
12:00 +30°C° 0 mm 4 mps 723 mmHg 49%
13:00 +30°C° 0 mm 5 mps 722 mmHg 50%
14:00 +30°C° 0 mm 5 mps 722 mmHg 51%
15:00 +29°C° 0.1 mm 5 mps 722 mmHg 54%
16:00 +28°C° 0.1 mm 4 mps 721 mmHg 58%
17:00 +27°C° 0.1 mm 4 mps 721 mmHg 61%
18:00 +26°C° 0.1 mm 3 mps 722 mmHg 68%
19:00 +25°C° 0.1 mm 3 mps 722 mmHg 75%
20:00 +23°C° 0.1 mm 2 mps 722 mmHg 82%
21:00 +23°C° 0.2 mm 2 mps 722 mmHg 84%
22:00 +23°C° 0.2 mm 2 mps 723 mmHg 86%
23:00 +21°C° 0.2 mm 2 mps 723 mmHg 89%

Mañana, 24 Abril, Sábado

Tiempo Temperatura Precipitaciones Viento Presión Humedad
00:00 +21°C° 0.1 mm 2 mps 722 mmHg 89%
01:00 +21°C° 0.1 mm 2 mps 722 mmHg 90%
02:00 +21°C° 0.1 mm 2 mps 722 mmHg 91%
03:00 +21°C° 0.1 mm 2 mps 722 mmHg 90%
04:00 +21°C° 0.1 mm 2 mps 722 mmHg 90%
05:00 +21°C° 0.1 mm 2 mps 722 mmHg 90%
06:00 +23°C° 0.1 mm 2 mps 722 mmHg 85%
07:00 +24°C° 0.1 mm 3 mps 723 mmHg 80%
08:00 +25°C° 0.1 mm 3 mps 724 mmHg 76%
09:00 +26°C° 0 mm 4 mps 724 mmHg 67%
10:00 +28°C° 0 mm 4 mps 724 mmHg 59%
11:00 +29°C° 0 mm 5 mps 724 mmHg 50%
12:00 +29°C° 0 mm 5 mps 723 mmHg 47%
13:00 +30°C° 0 mm 5 mps 723 mmHg 44%
14:00 +30°C° 0 mm 5 mps 722 mmHg 42%
15:00 +29°C° 0 mm 5 mps 722 mmHg 44%
16:00 +28°C° 0 mm 5 mps 722 mmHg 46%
17:00 +28°C° 0 mm 4 mps 722 mmHg 48%
18:00 +26°C° 0 mm 4 mps 722 mmHg 58%
19:00 +24°C° 0 mm 3 mps 722 mmHg 68%
20:00 +21°C° 0 mm 2 mps 722 mmHg 77%
21:00 +21°C° 0 mm 2 mps 722 mmHg 79%
22:00 +20°C° 0 mm 2 mps 723 mmHg 81%
23:00 +20°C° 0 mm 2 mps 723 mmHg 83%

Pasado mañana, 25 Abril, Domingo

Tiempo Temperatura Precipitaciones Viento Presión Humedad
00:00 +20°C° 0 mm 2 mps 722 mmHg 83%
01:00 +20°C° 0 mm 2 mps 722 mmHg 83%
02:00 +21°C° 0 mm 1 mps 722 mmHg 84%
03:00 +20°C° 0 mm 2 mps 722 mmHg 83%
04:00 +21°C° 0 mm 2 mps 722 mmHg 82%
05:00 +21°C° 0 mm 2 mps 722 mmHg 81%
06:00 +22°C° 0 mm 3 mps 722 mmHg 75%
07:00 +24°C° 0 mm 3 mps 722 mmHg 68%
08:00 +25°C° 0 mm 4 mps 723 mmHg 61%
09:00 +26°C° 0 mm 4 mps 723 mmHg 53%
10:00 +28°C° 0 mm 4 mps 723 mmHg 46%
11:00 +29°C° 0 mm 5 mps 723 mmHg 38%
12:00 +29°C° 0 mm 5 mps 723 mmHg 39%
13:00 +30°C° 0 mm 5 mps 722 mmHg 40%
14:00 +30°C° 0 mm 5 mps 722 mmHg 42%
15:00 +29°C° 0 mm 5 mps 722 mmHg 46%
16:00 +28°C° 0 mm 5 mps 721 mmHg 51%
17:00 +28°C° 0 mm 4 mps 721 mmHg 56%
18:00 +26°C° 0 mm 4 mps 721 mmHg 65%
19:00 +25°C° 0 mm 3 mps 722 mmHg 74%
20:00 +23°C° 0 mm 2 mps 722 mmHg 83%
21:00 +23°C° 0 mm 2 mps 722 mmHg 85%
22:00 +21°C° 0 mm 2 mps 722 mmHg 87%
23:00 +21°C° 0 mm 2 mps 722 mmHg 88%

26 Abril, Lunes

Tiempo Temperatura Precipitaciones Viento Presión Humedad
00:00 +21°C° 0 mm 2 mps 722 mmHg 86%
01:00 +21°C° 0 mm 2 mps 721 mmHg 84%
02:00 +21°C° 0 mm 2 mps 721 mmHg 82%
03:00 +20°C° 0 mm 2 mps 721 mmHg 83%
04:00 +20°C° 0 mm 2 mps 721 mmHg 85%
05:00 +19°C° 0 mm 2 mps 721 mmHg 87%
06:00 +21°C° 0 mm 2 mps 721 mmHg 81%
07:00 +23°C° 0 mm 2 mps 722 mmHg 75%
08:00 +25°C° 0 mm 2 mps 722 mmHg 69%
09:00 +26°C° 0.2 mm 3 mps 722 mmHg 68%
10:00 +26°C° 0.2 mm 4 mps 722 mmHg 67%
11:00 +27°C° 0.2 mm 5 mps 722 mmHg 66%
12:00 +27°C° 0.2 mm 4 mps 722 mmHg 65%
13:00 +27°C° 0.2 mm 4 mps 721 mmHg 64%
14:00 +26°C° 0.2 mm 4 mps 721 mmHg 63%
15:00 +26°C° 0 mm 4 mps 721 mmHg 62%
16:00 +26°C° 0 mm 4 mps 721 mmHg 61%
17:00 +27°C° 0 mm 4 mps 720 mmHg 60%
18:00 +25°C° 0 mm 3 mps 721 mmHg 67%
19:00 +24°C° 0 mm 2 mps 721 mmHg 74%
20:00 +23°C° 0 mm 2 mps 721 mmHg 81%
21:00 +23°C° 0 mm 2 mps 721 mmHg 83%
22:00 +22°C° 0 mm 1 mps 721 mmHg 85%
23:00 +22°C° 0 mm 1 mps 721 mmHg 87%

27 Abril, Martes

Tiempo Temperatura Precipitaciones Viento Presión Humedad
00:00 +22°C° 0 mm 1 mps 721 mmHg 88%
01:00 +22°C° 0 mm 1 mps 721 mmHg 89%
02:00 +22°C° 0 mm 1 mps 720 mmHg 90%
03:00 +22°C° 0 mm 1 mps 720 mmHg 86%
04:00 +23°C° 0 mm 1 mps 720 mmHg 83%
05:00 +23°C° 0 mm 2 mps 720 mmHg 79%
06:00 +24°C° 0 mm 2 mps 721 mmHg 76%
07:00 +24°C° 0 mm 2 mps 721 mmHg 73%
08:00 +25°C° 0 mm 2 mps 722 mmHg 70%
09:00 +26°C° 0 mm 3 mps 722 mmHg 61%
10:00 +28°C° 0 mm 4 mps 722 mmHg 52%
11:00 +29°C° 0 mm 4 mps 722 mmHg 44%
12:00 +30°C° 0 mm 5 mps 721 mmHg 42%
13:00 +30°C° 0 mm 5 mps 721 mmHg 41%
14:00 +30°C° 0 mm 5 mps 720 mmHg 39%
15:00 +29°C° 0 mm 5 mps 720 mmHg 46%
16:00 +28°C° 0 mm 5 mps 720 mmHg 52%
17:00 +28°C° 0 mm 5 mps 719 mmHg 58%
18:00 +26°C° 0.1 mm 4 mps 720 mmHg 66%
19:00 +24°C° 0.1 mm 3 mps 720 mmHg 75%
20:00 +23°C° 0.1 mm 2 mps 720 mmHg 83%
21:00 +21°C° 0.1 mm 2 mps 720 mmHg 84%
22:00 +21°C° 0.1 mm 2 mps 720 mmHg 85%
23:00 +22°C° 0.1 mm 1 mps 721 mmHg 87%

28 Abril, Miércoles

Tiempo Temperatura Precipitaciones Viento Presión Humedad
00:00 +22°C° 0.2 mm 1 mps 720 mmHg 87%
01:00 +21°C° 0.2 mm 1 mps 720 mmHg 88%
02:00 +21°C° 0.2 mm 1 mps 720 mmHg 88%
03:00 +21°C° 0.2 mm 1 mps 720 mmHg 88%
04:00 +21°C° 0.2 mm 1 mps 720 mmHg 88%
05:00 +21°C° 0.2 mm 1 mps 720 mmHg 88%
06:00 +22°C° 0.1 mm 1 mps 720 mmHg 85%
07:00 +23°C° 0.1 mm 2 mps 721 mmHg 82%
08:00 +24°C° 0.1 mm 2 mps 721 mmHg 78%
09:00 +26°C° 0.3 mm 2 mps 721 mmHg 70%
10:00 +27°C° 0.3 mm 3 mps 721 mmHg 62%
11:00 +28°C° 0.3 mm 4 mps 721 mmHg 53%
12:00 +28°C° 0.3 mm 4 mps 721 mmHg 53%
13:00 +29°C° 0.3 mm 4 mps 721 mmHg 53%
14:00 +29°C° 0.3 mm 4 mps 720 mmHg 53%
15:00 +28°C° 1.2 mm 4 mps 720 mmHg 57%
16:00 +27°C° 1.2 mm 4 mps 720 mmHg 62%
17:00 +26°C° 1.2 mm 4 mps 720 mmHg 67%
18:00 +25°C° 0.5 mm 3 mps 720 mmHg 73%
19:00 +22°C° 0.5 mm 3 mps 721 mmHg 79%
20:00 +21°C° 0.5 mm 2 mps 721 mmHg 86%
21:00 +21°C° 0.2 mm 2 mps 721 mmHg 87%
22:00 +21°C° 0.2 mm 2 mps 722 mmHg 89%
23:00 +20°C° 0.2 mm 2 mps 722 mmHg 90%
Mostrar más

Necesitamos Su Consentimiento

Meteoprog y nuestros Proveedores de Servicios pueden almacenar y acceder a sus datos personales como cookies, identificadores de dispositivo u otras tecnologías similares de su dispositivo y procesar dichos datos para personalizar contenido y anuncios, además de ofrecer funciones de redes sociales y analizar el tráfico.

  • Almacenar y/o acceder a información en su dispositivo

    Se puede almacenar o acceder a cookies, identificadores de dispositivo u otra información de su dispositivo para los fines anteriormente indicados.

  • Anuncios y contenido personalizados, medición de anuncios y contenido, percepciones del público, y desarrollo de productos

    Los anuncios y el contenido pueden personalizarse en base a su perfil. Se pueden añadir más datos para personalizar mejor los anuncios y contenidos. Se puede medir el rendimiento de los anuncios y contenidos. Se puede obtener la percepción sobre el público que ha visto los anuncios y contenidos. Dichos datos pueden usarse para desarrollar o mejorar la experiencia del usuario, sistemas y software.

Al hacer clic en ‘Estoy De Acuerdo’ usted permitirá el uso de las cookies, identificadores de dispositivo, balizas web u otras tecnologías similares indicadas. Su configuración puede cambiarse desde el navegador de su dispositivo.

Para ciertos fines, los intereses legítimos pueden ser considerados por encima del consentimiento. Puede leer más sobre ello en nuestra Política de Privacidad y Cookies.